Theta_e
320 319 319 319 317 317 318 318 318 318 317 317 318 318 317 316 314 314 315 316 316 315 315 317 317 318 319 318 317 320 322 322 323 324 324 324 324 324 324 323 322 322 321 321 323 325 325 324 323 323 320 318 317 318 318 319 321 323 323 324 326 328 330
319 317 317 318 317 316 318 318 319 318 316 315 315 313 311 309 307 307 309 310 312 313 312 313 312 311 311 313 315 316 318 318 318 321 322 322 323 323 323 323 322 322 322 323 324 324 324 324 324 323 322 318 315 315 316 317 318 317 316 317 319 322 326
319 317 317 318 317 317 317 317 318 316 315 313 312 311 310 309 306 306 306 306 307 308 308 307 306 304 303 305 308 307 310 313 311 311 313 315 318 318 319 321 321 321 322 322 323 322 322 323 323 323 323 320 316 314 314 314 313 311 312 314 314 315 318
318 317 318 318 318 318 318 317 318 318 317 313 310 309 309 308 306 306 305 305 305 305 306 306 306 305 304 303 303 302 304 306 304 304 304 305 308 309 310 315 316 317 319 320 320 320 319 320 320 320 320 318 315 312 313 314 313 310 309 310 310 313 317
318 317 319 319 319 319 319 318 319 318 317 315 312 310 308 307 306 306 305 305 305 305 306 306 306 306 306 305 305 304 304 304 304 304 303 303 304 304 304 307 310 313 314 314 314 316 316 316 316 316 315 315 315 314 314 314 314 312 311 310 309 313 319
317 317 318 319 319 319 319 318 318 319 318 317 316 314 309 307 308 307 306 306 305 305 305 306 306 306 307 306 305 305 305 305 305 305 305 304 304 305 304 304 307 312 311 307 306 310 314 313 313 315 315 315 315 313 313 312 313 314 314 315 314 316 320
318 318 318 319 319 318 318 318 317 318 319 318 318 316 311 310 311 308 307 307 305 305 305 305 306 306 309 309 306 305 305 305 306 305 305 305 304 304 304 303 305 307 308 306 305 309 313 313 313 315 314 314 314 313 313 313 313 314 316 318 318 320 322
319 318 318 318 319 318 318 319 317 317 319 318 319 318 312 312 312 308 307 307 306 306 305 305 306 305 307 308 306 305 305 305 306 305 305 304 304 303 303 303 303 303 304 305 306 308 311 312 312 313 312 313 314 314 314 314 313 313 316 318 319 319 320
319 318 318 318 319 319 318 319 317 316 318 318 320 319 314 313 311 308 308 308 307 307 306 305 306 305 305 306 305 305 305 305 305 305 305 304 304 304 303 303 303 303 302 302 303 305 305 305 307 310 312 313 314 314 314 314 314 314 315 317 319 319 319
319 319 318 317 319 319 319 319 318 317 318 318 320 319 315 313 311 309 309 308 307 308 307 306 306 305 305 306 305 305 305 305 305 305 305 305 304 304 304 303 303 303 303 302 302 302 302 302 302 305 310 312 313 313 313 314 314 315 315 314 315 316 317
321 320 319 317 319 320 320 319 318 318 317 317 319 319 315 313 311 309 309 308 308 308 307 307 307 306 306 306 306 305 305 305 305 305 304 305 305 305 304 304 304 304 303 302 302 302 301 301 301 303 308 311 312 313 313 314 314 314 315 314 314 315 316
320 320 320 319 319 320 320 319 319 319 318 317 319 318 316 314 312 310 310 309 308 308 308 308 308 307 307 307 306 306 305 305 305 305 304 304 304 304 305 305 304 304 303 303 304 303 302 302 301 302 306 309 311 312 313 313 313 313 314 315 316 315 314
318 319 320 321 321 320 320 319 319 319 319 318 319 318 316 315 313 312 312 311 309 309 308 308 308 308 307 307 308 308 306 305 306 305 304 304 304 304 305 305 305 304 303 303 305 304 304 304 303 303 305 307 309 310 311 312 313 313 313 313 314 313 313
320 321 320 319 321 322 320 319 318 319 319 319 319 318 317 317 316 314 314 314 312 310 309 309 308 308 308 308 309 309 307 306 307 308 305 304 304 304 304 305 305 304 303 303 303 304 306 308 307 306 308 309 309 309 310 310 311 311 312 312 312 313 313
321 323 320 318 320 322 321 318 317 317 318 319 319 319 318 318 317 315 315 316 315 313 311 310 309 309 309 309 308 309 308 307 308 308 306 304 305 305 304 304 305 304 303 302 301 303 306 307 307 307 307 309 309 308 308 309 309 309 309 309 309 310 311
320 320 318 316 316 318 319 318 318 318 318 318 318 318 318 318 318 317 316 316 317 316 315 313 311 309 309 309 309 309 309 308 308 308 306 305 306 305 304 304 304 304 303 302 301 303 304 305 306 307 306 307 307 307 308 309 309 308 308 308 308 309 310
323 322 321 319 316 315 316 317 318 317 318 319 319 318 318 318 318 318 317 317 317 316 316 314 312 311 310 310 310 310 310 309 309 308 307 306 306 305 304 304 304 304 303 302 301 303 305 306 307 306 305 305 306 306 307 309 309 309 309 309 309 308 308
323 323 322 321 320 319 319 319 318 317 318 318 318 318 318 319 319 319 319 318 317 316 315 314 313 312 311 310 310 311 310 310 310 309 308 307 306 305 304 303 304 303 302 302 301 303 305 305 303 303 304 304 305 305 305 306 307 307 308 308 308 307 307
323 323 322 322 322 322 322 322 321 320 320 320 319 318 318 319 319 319 319 319 318 317 316 315 314 313 312 311 311 311 311 310 311 310 309 307 306 305 304 303 303 302 301 300 300 301 301 300 300 300 302 302 303 303 303 304 304 305 305 306 306 306 307
319 322 322 322 323 324 324 324 323 322 322 321 321 320 319 318 318 319 319 319 319 318 317 316 315 313 313 312 311 311 311 311 311 310 309 308 306 304 303 303 302 301 300 300 299 299 299 298 298 299 301 302 303 304 304 305 305 305 305 305 306 306 306
313 315 316 316 317 318 320 321 323 323 322 321 321 321 321 319 318 319 319 319 320 319 318 317 316 314 314 313 312 312 311 311 311 310 309 307 305 304 303 302 301 301 300 300 299 298 297 297 296 296 298 299 299 300 302 303 304 305 305 305 306 306 306
311 311 311 312 312 313 312 314 317 319 320 320 320 321 321 320 319 319 320 320 320 319 318 317 316 315 314 313 312 312 311 311 310 309 308 306 304 304 302 302 301 301 300 300 298 297 296 295 295 294 295 294 295 296 298 300 302 303 304 305 305 305 306
308 308 309 309 310 310 310 310 311 314 318 321 321 322 322 321 321 320 320 320 319 319 318 317 316 315 314 314 313 312 311 310 308 307 306 305 304 303 302 301 301 300 300 299 298 296 296 295 294 294 294 294 294 294 295 296 297 299 301 302 303 304 304
305 305 305 307 309 311 312 314 315 315 317 318 319 321 322 322 321 320 320 320 319 318 318 317 316 315 314 314 312 311 311 309 307 306 305 304 303 302 302 301 300 300 300 299 298 297 296 295 294 294 295 295 295 294 295 295 295 296 297 298 300 302 303
306 306 307 309 313 314 314 315 317 317 317 315 314 317 320 320 321 321 321 320 318 318 317 316 316 315 314 314 312 311 310 308 306 305 304 303 303 302 301 301 300 300 299 298 297 297 296 296 297 297 297 296 295 295 295 295 295 295 295 296 297 299 300
309 309 309 310 313 315 315 316 316 317 317 314 310 311 314 316 319 320 320 319 317 316 316 315 315 314 314 313 311 310 309 306 305 304 303 302 302 302 301 300 300 299 299 298 298 298 298 299 299 299 298 296 296 296 296 296 296 296 296 296 296 297 297
309 309 309 309 310 312 315 316 316 315 316 315 312 311 312 314 317 319 319 318 317 316 315 314 314 313 313 311 310 309 308 304 303 303 302 302 302 301 300 299 299 298 299 299 299 299 300 300 299 298 297 296 296 296 297 297 297 297 298 298 298 298 298
308 308 308 308 309 311 313 315 315 315 315 315 315 315 314 314 315 317 317 317 316 315 314 313 313 313 312 311 310 309 306 304 303 303 302 301 301 300 299 298 298 297 298 299 299 299 299 298 297 296 296 295 295 296 297 298 298 298 299 299 299 299 299
308 308 308 309 309 310 312 314 315 315 315 315 315 315 315 314 313 314 316 316 315 315 313 313 313 312 311 310 310 308 305 303 303 302 301 301 300 299 299 299 299 299 299 299 300 299 297 296 295 295 295 295 295 296 297 298 298 298 298 298 298 298 299
308 308 308 308 309 310 312 314 315 315 315 315 314 314 314 314 313 314 315 315 314 313 312 312 311 310 310 310 309 306 303 302 301 301 301 301 301 300 300 300 299 300 300 300 299 298 296 296 295 295 295 295 296 296 297 297 298 298 298 298 297 297 297
308 308 308 308 309 310 311 313 314 314 314 314 314 314 314 313 313 314 314 313 312 311 311 311 310 310 309 309 307 305 303 301 301 301 301 301 301 301 300 300 299 299 299 299 298 297 296 296 296 296 295 295 296 296 297 296 297 297 297 297 297 297 297
308 309 309 308 308 309 310 312 313 313 313 313 313 313 313 313 312 312 312 310 309 309 310 310 309 308 307 306 306 305 303 301 301 301 301 301 301 301 301 300 299 299 298 298 297 297 296 296 296 296 296 295 295 296 296 296 296 296 296 296 297 297 297
308 309 309 309 308 308 309 311 312 313 312 312 312 312 312 312 312 311 309 308 307 308 309 308 307 306 305 305 304 302 299 298 299 300 300 300 300 300 300 299 299 298 298 298 297 297 297 296 296 296 296 295 295 295 295 295 294 294 295 295 295 295 295
308 309 309 308 307 307 308 310 311 312 312 312 312 312 312 312 311 309 307 306 306 307 306 306 305 304 303 301 300 296 295 297 299 299 299 298 298 298 298 298 298 297 297 297 297 297 296 296 296 296 296 295 294 294 294 293 293 292 292 292 293 293 293
306 306 307 307 306 306 308 310 311 311 312 312 312 312 312 311 309 307 306 306 305 305 304 303 303 301 299 297 296 294 294 296 296 296 295 295 296 297 297 297 298 298 297 297 297 296 296 296 296 295 295 294 294 293 293 292 292 291 291 291 292 292 292
305 306 306 307 307 307 308 310 310 311 311 311 311 311 312 310 308 306 306 305 304 303 302 300 298 297 295 295 294 294 293 293 293 293 294 294 295 296 296 297 297 297 296 296 295 295 295 295 294 294 294 293 293 292 292 291 291 291 291 291 291 292 292
306 306 307 308 309 309 309 309 310 310 310 310 310 310 311 310 308 306 305 303 301 299 298 297 296 295 294 294 293 293 293 293 293 293 293 293 293 294 295 296 296 295 295 294 294 294 294 294 294 293 293 292 292 291 291 291 291 291 291 291 291 292 292
Wind_Speed
9 9 10 9 9 8 8 8 8 8 8 8 8 8 8 8 8 8 9 8 7 6 5 4 4 4 4 3 4 4 3 2 2 2 2 1 2 4 5 6 8 10 12 12 11 10 10 10 11 11 12 10 10 12 12 11 12 14 13 13 14 13 11
10 10 10 10 9 9 9 9 8 7 7 8 8 8 8 9 9 10 10 10 9 8 6 5 5 5 4 4 4 4 4 3 3 3 3 3 2 2 2 1 2 3 6 7 7 7 8 9 9 9 10 9 8 11 13 13 14 16 16 15 16 16 16
11 11 11 10 9 8 9 9 8 7 7 7 8 8 8 8 8 9 9 10 10 10 9 9 9 8 7 7 6 5 5 4 3 2 2 2 1 2 3 4 3 2 2 3 3 4 4 5 6 7 7 9 11 12 14 15 17 18 18 17 17 18 19
13 13 12 11 10 9 8 8 8 8 7 6 6 7 6 6 7 8 8 8 9 9 10 10 11 10 10 10 9 8 7 6 5 4 1 1 0 1 0 2 2 2 2 2 3 3 4 5 6 6 7 10 12 14 15 15 18 20 19 18 18 18 18
14 14 13 12 11 10 9 8 8 8 7 6 6 5 5 5 5 6 6 7 7 8 8 9 9 9 10 10 10 10 9 8 8 6 5 3 2 2 0 1 3 3 2 3 3 4 5 6 6 7 8 9 10 12 12 13 15 16 16 15 15 15 15
14 14 13 13 12 11 10 9 8 8 8 7 7 5 3 3 4 4 5 5 6 6 6 6 7 8 8 9 9 9 8 8 8 7 6 5 4 4 3 2 3 3 3 4 4 3 5 6 6 7 8 8 9 11 11 11 12 12 11 11 11 10 12
15 14 13 13 13 12 11 11 9 8 8 8 8 7 3 3 3 2 3 4 4 5 4 4 5 6 8 7 6 7 7 7 7 6 6 6 5 4 4 3 3 2 3 4 4 3 4 6 6 7 8 9 10 11 10 9 9 9 10 10 9 9 10
15 14 13 13 13 13 12 13 11 10 9 9 9 8 5 5 4 1 2 2 3 3 3 3 3 4 6 5 5 6 6 6 6 7 7 7 7 6 5 4 3 2 2 3 3 3 3 4 5 7 8 9 10 10 9 8 8 8 8 8 7 9 10
15 15 14 13 13 13 13 14 13 12 11 10 11 10 7 7 6 3 1 1 1 2 2 3 3 3 4 4 4 4 5 6 6 7 8 8 8 8 7 6 5 4 4 4 3 4 4 5 5 6 6 8 9 10 9 9 9 8 7 8 7 6 6
16 15 15 14 14 14 14 14 13 13 13 12 13 13 9 8 7 5 4 3 1 1 1 1 2 2 3 3 2 3 4 5 5 6 7 8 8 8 9 8 7 6 6 6 5 5 5 5 5 4 5 6 7 9 10 10 10 9 9 9 9 7 6
17 16 15 15 14 15 15 15 14 14 14 13 15 14 11 9 8 7 7 6 4 3 2 1 2 2 2 2 1 1 2 3 3 4 4 6 7 8 8 9 9 8 8 8 7 6 6 6 5 4 5 6 7 8 9 11 12 11 10 10 9 10 10
19 17 16 15 14 15 15 15 14 14 14 14 16 15 12 11 10 9 9 8 6 5 5 4 4 4 3 3 2 1 1 1 1 2 2 3 4 6 7 8 9 8 9 10 9 9 10 8 7 6 5 6 7 8 9 11 14 12 10 10 11 12 14
18 16 15 14 14 14 15 14 14 14 15 15 16 16 14 13 12 10 11 10 9 8 8 7 7 6 6 5 3 3 3 2 2 2 3 3 4 5 6 8 8 8 9 9 7 8 10 9 10 10 8 6 7 8 9 10 14 15 13 12 14 14 13
15 14 17 17 16 15 15 16 15 14 15 15 16 17 16 15 14 12 12 13 12 11 10 10 10 9 8 7 5 5 5 3 3 4 4 5 5 6 6 6 7 9 10 9 6 5 6 7 9 10 9 8 7 7 8 10 13 15 14 13 14 14 14
17 17 21 22 20 17 16 17 16 15 16 16 17 18 18 17 17 15 14 15 14 14 13 13 12 11 11 11 9 8 7 5 5 6 6 6 6 7 8 6 7 10 11 10 9 5 4 6 6 6 7 8 9 9 10 10 12 15 16 15 15 15 14
18 20 23 24 24 22 19 18 17 17 18 18 18 20 19 19 19 18 17 17 16 16 15 15 15 14 14 14 12 11 9 7 7 8 7 6 6 8 10 9 8 11 12 12 10 7 6 6 6 6 8 9 10 11 11 11 13 15 17 17 16 15 14
15 17 20 23 24 25 24 23 23 20 20 20 20 20 21 21 21 21 20 19 18 18 18 18 18 17 16 16 15 13 12 9 9 9 8 7 7 9 11 10 9 11 12 11 10 8 6 6 7 8 9 9 10 11 10 11 13 14 16 18 18 17 17
13 14 15 17 20 22 23 25 26 25 24 24 23 22 22 22 22 22 23 22 22 22 21 21 21 19 18 18 16 15 13 12 11 10 9 9 10 10 11 11 10 10 11 11 9 7 7 9 10 10 10 10 10 11 12 12 13 14 16 18 20 20 19
9 12 13 14 16 18 19 20 21 22 23 24 24 23 23 23 23 24 25 25 25 25 24 23 23 21 19 19 18 17 15 14 13 11 11 11 11 12 12 11 11 11 11 11 10 10 10 12 13 12 12 12 12 12 14 14 15 15 17 19 20 20 20
3 4 7 10 12 14 15 17 19 19 19 19 20 22 23 24 26 26 26 26 26 25 24 23 23 22 21 21 20 18 17 16 15 13 13 12 12 13 13 12 12 12 12 12 12 12 13 14 14 13 12 12 12 13 14 15 15 16 17 18 19 19 19
6 5 5 5 6 7 10 14 17 19 19 19 20 22 22 24 26 27 28 27 25 25 25 25 25 23 22 22 21 20 19 18 16 15 15 14 14 14 14 13 13 13 14 14 14 14 15 16 16 15 13 13 14 14 15 15 16 16 17 18 18 18 19
11 12 12 11 11 12 12 13 14 15 17 19 20 22 22 23 24 24 26 27 25 25 27 29 29 27 25 24 22 20 19 18 16 16 15 14 15 15 14 14 15 15 15 16 16 17 17 16 16 16 16 16 16 17 17 17 17 17 17 18 19 18 19
6 8 9 11 13 15 14 13 12 12 14 16 18 20 21 23 24 24 26 28 28 28 29 29 30 30 29 26 22 20 19 18 16 15 14 14 14 15 14 14 16 17 18 19 19 19 18 16 16 17 17 17 17 18 19 20 20 20 19 19 20 19 20
8 8 8 8 9 10 11 11 11 12 13 14 16 17 18 21 23 25 27 29 29 31 32 31 31 32 32 28 24 22 21 18 16 15 14 14 13 14 14 14 14 17 19 21 20 19 19 18 17 18 18 18 18 19 20 22 23 23 23 23 22 21 21
9 9 9 8 8 9 10 10 11 12 12 13 14 14 15 19 20 22 26 28 30 33 33 32 32 33 33 31 28 25 20 17 16 15 14 14 12 11 11 11 12 15 18 18 17 17 19 19 18 18 20 22 24 24 23 23 24 24 25 26 26 25 24
6 7 8 8 8 10 11 11 11 12 12 14 15 14 14 15 16 21 24 26 30 34 33 31 32 34 34 32 30 25 18 15 15 14 13 13 12 11 11 12 13 14 15 16 16 15 14 13 14 17 20 23 25 26 26 26 26 26 26 27 29 29 29
6 8 9 10 10 11 11 12 12 12 11 13 15 14 12 11 13 18 20 23 28 33 35 34 34 34 33 31 28 22 16 13 14 13 12 14 14 14 14 14 13 13 12 13 12 11 11 11 13 16 19 21 23 24 25 26 27 28 28 28 29 29 28
9 11 12 12 12 11 12 13 13 12 11 12 12 12 12 12 12 14 18 24 29 32 34 35 35 34 33 31 25 20 16 17 17 15 13 15 15 15 14 14 14 14 13 13 13 14 15 16 18 20 22 24 26 25 24 23 23 25 26 26 27 27 25
10 12 12 12 12 12 12 13 13 12 12 12 13 13 14 14 13 13 20 27 31 32 32 34 34 33 32 28 23 18 16 16 15 13 12 13 14 13 13 12 12 12 12 12 14 18 20 22 24 25 26 28 28 26 23 22 22 24 26 27 28 28 28
11 12 12 12 12 12 11 12 12 12 12 12 13 13 14 15 15 15 20 26 29 30 31 32 33 31 28 25 21 17 13 10 9 10 10 12 12 12 12 13 12 12 13 13 16 22 25 26 27 27 27 30 29 26 22 21 22 24 25 28 30 30 31
11 12 12 12 12 12 11 12 12 12 12 13 13 13 14 16 16 16 19 22 24 26 28 32 31 27 24 22 19 17 12 7 6 9 10 11 11 11 12 14 15 15 15 16 19 24 27 28 29 29 30 31 30 25 23 23 23 23 24 25 27 29 30
12 12 11 12 12 12 11 12 12 13 13 13 12 12 14 15 15 15 17 17 19 22 26 29 27 23 21 19 18 17 13 9 8 10 11 11 11 10 11 13 15 17 17 18 20 24 27 29 31 32 33 33 31 27 24 24 24 23 23 24 26 27 28
12 12 12 12 13 13 12 12 13 13 13 13 12 12 14 15 15 14 14 16 20 22 24 25 23 20 19 18 16 13 10 9 9 9 9 9 9 10 10 11 15 19 20 21 24 27 29 32 33 35 36 37 37 33 28 27 28 29 29 31 32 32 30
13 14 14 15 15 14 13 13 13 14 13 13 13 12 15 18 16 13 14 18 22 23 22 22 21 18 15 14 11 8 6 7 9 9 9 9 9 10 10 10 16 21 22 24 27 30 32 34 35 37 38 39 40 39 37 37 39 39 35 33 34 33 30
16 18 19 19 18 17 15 13 14 14 14 15 15 14 16 16 14 14 17 21 22 22 20 18 16 14 10 8 7 6 6 8 10 11 11 10 9 11 11 11 16 22 24 27 30 31 33 35 37 39 41 41 41 40 39 38 38 35 30 28 29 29 26
18 20 21 20 19 18 15 13 15 15 15 17 17 15 17 17 15 18 22 23 21 19 16 14 11 8 7 6 6 6 7 9 10 9 10 10 10 12 12 13 16 22 25 27 28 30 32 35 36 37 37 36 34 32 30 30 27 24 22 22 23 24 23
18 18 18 16 16 15 14 16 18 19 19 19 17 16 19 21 20 22 24 23 19 15 12 10 8 5 5 5 5 5 7 7 7 8 9 10 11 12 13 15 17 21 23 25 26 27 27 27 26 26 26 25 24 23 23 22 20 19 19 20 21 23 23
Wind_Direction
152 146 139 134 130 124 115 104 96 92 90 90 94 97 100 99 99 103 102 94 83 79 82 91 105 105 98 111 122 112 90 73 79 125 170 250 248 232 240 244 246 253 256 254 252 256 260 263 267 266 269 292 307 296 293 295 288 285 281 278 279 275 267
158 151 145 141 137 133 126 121 118 112 105 100 99 99 95 94 95 97 101 102 99 93 90 94 101 108 107 90 89 96 94 89 90 103 107 77 60 52 37 7 277 278 260 244 242 257 263 264 268 267 261 266 292 303 296 293 295 299 299 295 295 298 299
160 155 154 151 147 142 135 132 129 120 112 108 104 101 97 91 89 91 93 96 100 101 99 94 88 88 94 93 91 92 86 82 84 110 142 128 88 56 50 42 19 356 305 263 269 285 286 285 281 283 280 268 272 283 286 289 293 296 299 297 297 299 298
166 161 160 160 155 151 146 139 136 133 129 124 116 109 104 94 85 89 91 88 90 92 90 89 87 86 87 86 84 84 85 82 80 81 90 137 96 308 68 45 14 357 350 336 325 303 298 305 294 288 289 284 282 279 280 284 285 286 289 289 291 292 285
174 169 166 166 163 161 157 150 149 149 145 141 133 123 110 96 86 86 91 92 90 89 87 88 88 90 89 86 83 80 78 78 79 76 68 65 48 25 21 54 13 353 324 299 299 304 302 298 295 294 291 290 291 285 280 278 276 283 290 288 288 286 274
181 177 173 171 168 169 168 163 163 161 160 159 154 153 132 101 98 89 91 96 99 99 98 97 97 95 89 85 87 86 81 78 76 73 67 60 50 38 30 56 55 21 334 300 293 307 311 306 305 303 297 294 293 287 287 288 287 293 294 292 297 292 274
187 185 182 181 177 176 176 174 172 170 175 174 171 183 179 137 139 107 90 93 98 105 104 104 107 104 97 91 91 90 83 77 71 68 64 56 46 38 25 32 55 39 356 340 343 352 329 320 316 303 300 302 299 296 297 296 294 294 290 289 288 279 273
191 191 191 191 187 184 182 181 179 177 184 183 180 196 198 172 186 197 102 98 90 101 105 104 106 107 110 108 100 91 82 74 67 62 59 55 48 40 36 29 29 24 358 337 338 333 301 296 298 299 305 309 308 306 302 298 296 290 291 297 281 263 265
195 196 197 198 194 192 187 186 184 180 185 185 183 198 207 193 210 242 218 174 95 102 104 112 120 113 116 112 98 86 76 66 60 57 53 49 45 41 39 32 30 27 9 356 334 310 288 276 282 291 302 306 309 311 309 308 305 295 297 300 280 271 280
199 199 201 202 199 197 193 192 191 186 185 183 183 199 211 205 218 239 236 245 234 162 137 132 150 139 131 128 104 75 65 56 51 55 51 44 42 39 35 28 27 26 10 2 355 337 324 307 295 288 295 299 298 303 307 306 304 302 307 293 266 271 305
203 203 204 206 203 201 199 197 196 193 191 187 187 200 210 209 219 228 232 249 252 237 251 231 228 230 185 167 136 76 49 41 41 42 39 38 39 35 33 26 22 19 4 357 355 350 347 337 325 315 304 303 296 292 296 296 295 296 303 301 282 273 272
206 207 208 209 208 208 207 205 203 200 196 192 192 202 212 215 222 223 226 243 247 241 249 250 255 253 232 237 241 237 322 356 355 352 5 15 18 18 19 19 21 19 6 1 357 348 347 343 338 334 308 292 290 287 286 288 288 288 292 297 294 284 273
211 214 216 216 217 217 215 211 211 209 206 201 199 205 214 218 227 229 223 232 242 241 243 244 251 254 247 253 247 234 271 297 273 282 312 330 343 349 351 356 2 6 5 8 2 341 339 338 337 339 327 304 293 285 283 283 282 285 289 289 287 289 289
215 218 220 220 221 223 221 216 219 221 217 211 206 209 213 214 223 232 226 226 234 238 241 240 243 247 245 245 236 238 271 290 235 241 289 311 315 327 337 335 331 340 352 359 359 340 323 318 324 330 323 311 301 289 284 283 284 287 290 290 289 289 288
224 228 227 222 219 223 226 224 227 232 231 227 222 218 216 215 223 232 228 222 222 227 233 237 240 242 239 241 243 247 268 276 226 232 276 299 297 308 324 323 311 322 333 339 347 349 306 290 298 299 291 286 285 286 285 281 284 288 289 291 292 292 292
233 239 239 234 229 231 235 234 231 233 235 235 232 229 224 220 223 231 231 223 217 216 219 228 239 241 238 243 247 249 256 257 243 254 278 279 265 284 307 315 308 313 324 331 335 333 308 297 295 283 279 279 280 286 287 282 284 288 291 296 299 296 295
233 233 237 240 240 242 245 246 241 238 237 235 234 237 234 227 223 225 226 224 222 220 220 228 241 243 240 244 246 247 252 254 255 264 270 259 251 266 287 297 297 302 313 321 322 320 305 289 287 287 286 287 288 290 289 285 286 288 290 293 297 296 295
235 231 234 241 245 248 252 252 249 245 244 242 240 237 232 228 227 223 221 224 231 236 234 236 242 243 240 243 244 242 248 253 257 261 261 261 261 265 274 281 283 290 300 306 308 303 285 276 283 289 287 286 286 284 281 277 278 282 286 288 292 295 295
248 244 240 239 243 248 250 251 250 248 246 247 246 241 233 231 231 225 223 226 230 237 240 238 240 242 240 242 243 242 245 250 254 258 263 269 271 270 272 273 275 281 289 294 293 288 285 286 291 292 290 290 289 285 282 282 282 283 285 286 289 292 294
260 249 237 236 242 250 250 252 254 252 251 252 250 248 246 244 240 232 229 227 224 227 232 232 237 240 236 238 243 242 243 246 248 253 261 266 267 269 272 271 274 282 286 287 288 288 290 292 293 292 291 291 291 290 287 287 287 286 285 285 286 287 290
263 279 281 271 270 276 274 269 263 256 258 261 256 253 252 250 247 241 234 229 222 219 220 224 235 240 233 231 237 238 240 243 244 250 259 262 263 266 271 273 275 281 285 287 289 291 292 292 291 290 287 283 282 285 287 288 288 287 286 286 286 286 287
265 272 275 275 278 283 288 289 282 269 263 262 259 257 254 249 246 240 233 229 223 219 221 225 235 239 231 227 230 232 234 237 239 248 258 263 265 269 273 277 280 283 288 293 296 297 297 296 294 292 289 287 285 285 285 285 285 286 286 285 285 286 286
290 279 271 268 269 271 273 282 290 281 266 258 254 256 257 252 246 238 234 234 230 226 222 221 229 236 233 229 227 225 229 232 235 245 255 259 264 272 277 281 285 289 294 298 301 302 302 300 296 293 290 287 286 287 287 286 284 283 283 283 284 285 285
318 310 304 296 284 275 273 275 277 275 269 262 255 252 253 254 250 240 236 237 235 228 220 218 228 235 232 228 223 220 226 233 237 243 249 251 259 272 280 283 284 289 296 302 304 306 306 305 302 298 295 293 291 291 291 290 288 285 281 280 280 280 281
318 316 314 306 290 276 271 266 263 264 266 267 265 257 250 253 251 240 235 235 229 220 217 224 232 230 227 227 222 219 224 234 241 245 246 248 253 259 267 270 272 281 292 297 300 301 304 308 309 304 302 302 302 302 300 297 294 291 287 284 280 277 276
306 302 299 292 283 275 271 264 259 258 262 271 278 273 261 256 247 235 235 236 227 218 220 232 235 229 227 225 220 219 226 235 242 243 239 244 251 252 255 258 263 274 283 289 295 299 300 302 302 300 302 304 306 307 307 304 300 296 293 288 284 281 277
295 292 292 291 287 279 271 264 263 261 261 269 279 278 269 261 247 236 234 234 231 229 231 236 236 231 227 221 221 227 230 227 235 237 234 246 260 266 266 264 265 271 275 278 282 281 275 275 280 287 293 296 298 300 300 298 298 297 294 291 287 285 283
297 299 299 297 293 284 272 263 263 263 260 259 264 264 262 260 256 244 233 230 231 233 233 232 231 229 223 220 226 233 224 221 234 241 244 255 266 271 269 269 274 280 279 276 271 267 269 276 281 285 288 290 294 296 293 288 286 286 286 285 284 285 286
303 303 301 297 291 283 272 264 259 258 258 255 251 249 253 258 259 244 232 231 232 233 232 229 227 224 220 221 229 230 222 229 243 250 254 258 262 264 262 262 270 276 274 271 269 270 277 285 289 290 292 295 299 299 292 284 280 278 277 277 276 275 274
298 299 300 298 292 284 274 264 257 255 254 252 249 246 245 248 248 238 230 230 233 235 231 226 222 220 220 225 228 222 217 229 248 256 259 256 253 256 257 256 261 265 264 265 270 276 285 292 295 294 295 298 300 296 290 286 283 278 276 276 277 277 276
289 290 293 293 291 287 278 266 259 254 251 250 250 247 242 241 240 230 221 224 233 235 226 220 219 220 223 225 223 220 219 220 239 251 254 252 252 255 261 268 275 277 274 273 277 284 290 294 295 294 295 297 297 293 290 290 286 282 280 279 280 282 282
285 286 288 290 291 289 281 270 262 256 253 254 255 250 245 240 233 221 212 214 226 228 219 215 215 215 216 216 218 225 226 216 225 240 245 250 257 262 266 278 286 287 283 280 280 283 286 288 290 291 292 293 292 290 290 290 287 284 281 277 274 274 274
283 284 285 288 290 287 280 270 262 258 256 255 256 254 243 226 212 206 203 205 213 215 211 210 207 205 209 213 219 227 219 207 223 242 248 254 264 270 275 284 286 283 282 282 282 282 284 285 286 287 288 288 288 288 287 285 282 280 277 274 272 270 269
278 281 282 284 287 285 279 270 262 259 257 253 249 242 225 212 204 199 197 199 204 206 205 205 204 204 208 214 220 220 202 206 225 238 247 257 270 277 283 286 282 280 279 279 279 281 282 283 284 285 286 286 287 287 286 284 283 282 279 276 275 274 273
274 278 279 282 285 283 277 268 260 256 254 251 242 222 206 203 200 197 195 196 200 201 200 200 203 204 205 207 217 219 216 228 239 246 257 269 277 280 283 285 280 278 278 279 280 282 283 284 284 284 284 285 286 286 285 284 283 281 278 276 276 275 274
269 273 275 278 282 281 276 267 258 252 246 243 236 221 212 209 201 195 196 196 197 196 191 188 190 192 195 208 226 233 236 244 254 265 278 285 287 287 287 282 276 276 279 281 281 280 279 280 280 280 281 282 283 285 285 284 282 279 276 275 273 272 271
263 264 265 266 270 273 271 261 251 244 239 237 234 228 224 218 205 196 192 188 185 182 177 179 184 186 200 222 237 248 256 265 276 289 293 293 294 294 289 285 285 290 293 291 289 287 286 286 286 285 286 289 291 294 292 287 281 278 276 274 272 272 271